When you browse on this site, cookies collect data to enhance your experience and personalize the content and advertising you see.
Visit our Privacy Policy to learn more. By continuing to use the site, you agree to this use of cookies and data.
  • In Austria
  • List of Countries
  • For 7 days
  • Water Temperature
  • Satellite Maps
  • Weather Map
  • News
  • Weather Widgets
  • user-avatar
    Login

    Hourly Weather Kryl

    Today, 21 May, Tuesday

    Time Temperature Precipitation Wind Pressure Humidity
    00:00 +15°C° 0 mm 2 mps 741 mmHg 85%
    01:00 +14°C° 0 mm 2 mps 741 mmHg 86%
    02:00 +14°C° 0 mm 2 mps 741 mmHg 88%
    03:00 +13°C° 0 mm 2 mps 742 mmHg 90%
    04:00 +13°C° 0 mm 2 mps 742 mmHg 91%
    05:00 +14°C° 0 mm 2 mps 742 mmHg 85%
    06:00 +16°C° 0 mm 2 mps 742 mmHg 78%
    07:00 +17°C° 0 mm 2 mps 742 mmHg 72%
    08:00 +19°C° 0 mm 2 mps 742 mmHg 64%
    09:00 +21°C° 0 mm 3 mps 742 mmHg 57%
    10:00 +22°C° 0 mm 3 mps 742 mmHg 50%
    11:00 +24°C° 0 mm 3 mps 742 mmHg 48%
    12:00 +24°C° 0 mm 3 mps 742 mmHg 47%
    13:00 +25°C° 0 mm 2 mps 742 mmHg 45%
    14:00 +25°C° 0 mm 2 mps 742 mmHg 46%
    15:00 +25°C° 0 mm 1 mps 742 mmHg 47%
    16:00 +22°C° 0 mm 0 mps 742 mmHg 48%
    17:00 +23°C° 0.2 mm 1 mps 742 mmHg 56%
    18:00 +21°C° 0.2 mm 2 mps 742 mmHg 63%
    19:00 +20°C° 0.2 mm 2 mps 742 mmHg 70%
    20:00 +19°C° 0.1 mm 2 mps 742 mmHg 76%
    21:00 +18°C° 0.1 mm 2 mps 742 mmHg 82%
    22:00 +17°C° 0.1 mm 2 mps 742 mmHg 88%
    23:00 +16°C° 0 mm 3 mps 742 mmHg 88%

    Tomorrow, 22 May, Wednesday

    Time Temperature Precipitation Wind Pressure Humidity
    00:00 +16°C° 0 mm 3 mps 742 mmHg 89%
    01:00 +14°C° 0 mm 3 mps 743 mmHg 89%
    02:00 +14°C° 0.2 mm 4 mps 743 mmHg 89%
    03:00 +13°C° 0.2 mm 4 mps 743 mmHg 89%
    04:00 +13°C° 0.2 mm 4 mps 743 mmHg 89%
    05:00 +13°C° 0.3 mm 4 mps 743 mmHg 89%
    06:00 +14°C° 0.3 mm 5 mps 744 mmHg 88%
    07:00 +14°C° 0.3 mm 5 mps 744 mmHg 88%
    08:00 +15°C° 0.2 mm 5 mps 744 mmHg 88%
    09:00 +15°C° 0.2 mm 5 mps 745 mmHg 88%
    10:00 +15°C° 0.2 mm 5 mps 745 mmHg 88%
    11:00 +16°C° 0.2 mm 5 mps 745 mmHg 86%
    12:00 +16°C° 0.2 mm 5 mps 745 mmHg 85%
    13:00 +17°C° 0.2 mm 6 mps 745 mmHg 83%
    14:00 +16°C° 0.4 mm 6 mps 746 mmHg 84%
    15:00 +16°C° 0.4 mm 6 mps 746 mmHg 86%
    16:00 +16°C° 0.4 mm 6 mps 746 mmHg 87%
    17:00 +15°C° 0 mm 6 mps 746 mmHg 88%
    18:00 +14°C° 0 mm 6 mps 747 mmHg 88%
    19:00 +14°C° 0 mm 6 mps 747 mmHg 88%
    20:00 +13°C° 0.1 mm 5 mps 748 mmHg 89%
    21:00 +13°C° 0.1 mm 5 mps 748 mmHg 89%
    22:00 +13°C° 0.1 mm 5 mps 749 mmHg 90%
    23:00 +12°C° 0.1 mm 5 mps 749 mmHg 89%

    Day after tomorrow, 23 May, Thursday

    Time Temperature Precipitation Wind Pressure Humidity
    00:00 +12°C° 0.1 mm 5 mps 749 mmHg 89%
    01:00 +10°C° 0.1 mm 6 mps 750 mmHg 89%
    02:00 +10°C° 0.1 mm 5 mps 750 mmHg 90%
    03:00 +9°C° 0.1 mm 5 mps 750 mmHg 90%
    04:00 +9°C° 0.1 mm 5 mps 750 mmHg 90%
    05:00 +9°C° 0 mm 5 mps 751 mmHg 89%
    06:00 +8°C° 0 mm 5 mps 751 mmHg 88%
    07:00 +8°C° 0 mm 5 mps 751 mmHg 86%
    08:00 +11°C° 0 mm 4 mps 752 mmHg 76%
    09:00 +12°C° 0 mm 4 mps 752 mmHg 66%
    10:00 +14°C° 0 mm 4 mps 752 mmHg 55%
    11:00 +15°C° 0 mm 4 mps 752 mmHg 51%
    12:00 +17°C° 0 mm 5 mps 752 mmHg 46%
    13:00 +19°C° 0 mm 5 mps 752 mmHg 41%
    14:00 +19°C° 0 mm 5 mps 752 mmHg 42%
    15:00 +19°C° 0 mm 4 mps 752 mmHg 43%
    16:00 +19°C° 0 mm 4 mps 751 mmHg 43%
    17:00 +18°C° 0 mm 3 mps 751 mmHg 50%
    18:00 +17°C° 0 mm 3 mps 751 mmHg 56%
    19:00 +16°C° 0 mm 2 mps 751 mmHg 62%
    20:00 +14°C° 0 mm 2 mps 751 mmHg 67%
    21:00 +13°C° 0 mm 1 mps 752 mmHg 73%
    22:00 +11°C° 0 mm 1 mps 752 mmHg 79%
    23:00 +11°C° 0 mm 1 mps 752 mmHg 79%

    24 May, Friday

    Time Temperature Precipitation Wind Pressure Humidity
    00:00 +10°C° 0 mm 1 mps 751 mmHg 79%
    01:00 +9°C° 0 mm 0 mps 751 mmHg 79%
    02:00 +10°C° 0 mm 1 mps 751 mmHg 79%
    03:00 +10°C° 0 mm 1 mps 751 mmHg 79%
    04:00 +9°C° 0 mm 2 mps 751 mmHg 79%
    05:00 +12°C° 0 mm 2 mps 751 mmHg 73%
    06:00 +13°C° 0 mm 2 mps 750 mmHg 67%
    07:00 +15°C° 0 mm 2 mps 750 mmHg 61%
    08:00 +16°C° 0 mm 2 mps 750 mmHg 55%
    09:00 +18°C° 0 mm 2 mps 750 mmHg 50%
    10:00 +20°C° 0 mm 3 mps 750 mmHg 44%
    11:00 +20°C° 0 mm 3 mps 749 mmHg 44%
    12:00 +20°C° 0 mm 2 mps 749 mmHg 45%
    13:00 +21°C° 0 mm 2 mps 748 mmHg 45%
    14:00 +21°C° 0 mm 3 mps 748 mmHg 45%
    15:00 +21°C° 0 mm 3 mps 747 mmHg 44%
    16:00 +22°C° 0 mm 3 mps 747 mmHg 44%
    17:00 +21°C° 0 mm 2 mps 747 mmHg 50%
    18:00 +20°C° 0 mm 2 mps 746 mmHg 55%
    19:00 +20°C° 0 mm 1 mps 746 mmHg 61%
    20:00 +19°C° 0 mm 1 mps 746 mmHg 63%
    21:00 +16°C° 0 mm 2 mps 746 mmHg 66%
    22:00 +15°C° 0 mm 2 mps 746 mmHg 68%
    23:00 +14°C° 0 mm 2 mps 746 mmHg 73%

    25 May, Saturday

    Time Temperature Precipitation Wind Pressure Humidity
    00:00 +14°C° 0 mm 2 mps 746 mmHg 77%
    01:00 +13°C° 0 mm 2 mps 745 mmHg 82%
    02:00 +13°C° 0 mm 2 mps 745 mmHg 84%
    03:00 +13°C° 0 mm 2 mps 745 mmHg 86%
    04:00 +13°C° 0 mm 2 mps 745 mmHg 87%
    05:00 +14°C° 0 mm 2 mps 746 mmHg 82%
    06:00 +14°C° 0 mm 3 mps 746 mmHg 77%
    07:00 +16°C° 0 mm 3 mps 746 mmHg 72%
    08:00 +17°C° 0 mm 4 mps 746 mmHg 66%
    09:00 +18°C° 0 mm 4 mps 746 mmHg 60%
    10:00 +20°C° 0 mm 4 mps 747 mmHg 55%
    11:00 +20°C° 0.1 mm 5 mps 746 mmHg 53%
    12:00 +20°C° 0.1 mm 5 mps 746 mmHg 52%
    13:00 +21°C° 0.1 mm 5 mps 746 mmHg 50%
    14:00 +21°C° 0 mm 5 mps 746 mmHg 50%
    15:00 +21°C° 0 mm 5 mps 746 mmHg 50%
    16:00 +21°C° 0 mm 5 mps 746 mmHg 49%
    17:00 +19°C° 0 mm 5 mps 746 mmHg 54%
    18:00 +18°C° 0 mm 4 mps 746 mmHg 59%
    19:00 +15°C° 0 mm 4 mps 747 mmHg 63%
    20:00 +14°C° 0 mm 3 mps 747 mmHg 69%
    21:00 +13°C° 0 mm 2 mps 747 mmHg 75%
    22:00 +10°C° 0 mm 0 mps 747 mmHg 81%
    23:00 +11°C° 0 mm 1 mps 747 mmHg 81%

    26 May, Sunday

    Time Temperature Precipitation Wind Pressure Humidity
    00:00 +11°C° 0 mm 1 mps 747 mmHg 82%
    01:00 +11°C° 0 mm 1 mps 747 mmHg 82%
    02:00 +10°C° 0 mm 2 mps 747 mmHg 82%
    03:00 +10°C° 0 mm 3 mps 747 mmHg 82%
    04:00 +10°C° 0 mm 3 mps 746 mmHg 82%
    05:00 +11°C° 0 mm 4 mps 746 mmHg 81%
    06:00 +13°C° 0 mm 5 mps 746 mmHg 79%
    07:00 +14°C° 0 mm 5 mps 746 mmHg 77%
    08:00 +13°C° 0.1 mm 5 mps 746 mmHg 77%
    09:00 +12°C° 0.1 mm 5 mps 747 mmHg 77%
    10:00 +10°C° 0.1 mm 5 mps 747 mmHg 77%
    11:00 +10°C° 0 mm 5 mps 747 mmHg 73%
    12:00 +12°C° 0 mm 5 mps 747 mmHg 69%
    13:00 +12°C° 0 mm 5 mps 747 mmHg 64%
    14:00 +13°C° 0 mm 5 mps 747 mmHg 63%
    15:00 +13°C° 0 mm 5 mps 747 mmHg 61%
    16:00 +14°C° 0 mm 5 mps 747 mmHg 60%
    17:00 +14°C° 0 mm 4 mps 747 mmHg 62%
    18:00 +13°C° 0 mm 3 mps 747 mmHg 64%
    19:00 +13°C° 0 mm 3 mps 747 mmHg 65%
    20:00 +13°C° 0 mm 2 mps 747 mmHg 71%
    21:00 +12°C° 0 mm 2 mps 747 mmHg 76%
    22:00 +9°C° 0 mm 2 mps 747 mmHg 82%
    23:00 +10°C° 0 mm 2 mps 747 mmHg 80%
    Show more